Location: Miss�
(46.9484°N, 0.1922°W)
Time: 03:35:37
(UTC+00:00)

Cosmos 2219 Rocket - Pass Details

Date: 02 March 2021
Orbit: 826 x 848 km, 71.0° (Epoch: 17 April)

Event Time Altitude Azimuth Distance (km) Brightness Sun altitude
Rises 19:39:21 0° 182° (S) 3,351 5.2 -19.7°
Reaches altitude 10° 19:41:54 10° 175° (S) 2,424 4.4 -20.2°
Enters shadow 19:45:46 35° 138° (SE) 1,312 2.8 -20.8°
